Time,TemperatureF,DewpointF,PressureIn,WindDirection,WindDirectionDegrees,WindSpeedMPH,WindSpeedGustMPH,Humidity,HourlyPrecipIn,Conditions,Clouds,dailyrainin,SoftwareType,DateUTC
2013-01-09 00:00:00,61.2,61.2,30.16,NNE,22,0.0,1.0,100,0.00,,,-99.99,WeatherLink 5.4,2013-01-09 05:00:00,
2013-01-09 00:15:00,61.4,61.4,30.15,NNE,22,0.0,2.0,100,0.00,,,-99.99,WeatherLink 5.4,2013-01-09 05:15:00,
2013-01-09 00:30:00,61.7,61.7,30.15,NE,45,0.0,1.0,100,0.00,,,-99.99,WeatherLink 5.4,2013-01-09 05:30:00,
2013-01-09 00:45:00,61.9,61.9,30.15,NE,45,0.0,2.0,100,0.00,,,-99.99,WeatherLink 5.4,2013-01-09 05:45:00,
2013-01-09 01:00:00,62.0,62.0,30.16,NE,45,0.0,2.0,100,0.00,,,-99.99,WeatherLink 5.4,2013-01-09 06:00:00,
2013-01-09 01:15:00,62.1,62.1,30.15,North,-999,0.0,0.0,100,0.00,,,-99.99,WeatherLink 5.4,2013-01-09 06:15:00,
2013-01-09 01:30:00,62.2,62.2,30.16,North,0,0.0,2.0,100,0.00,,,-99.99,WeatherLink 5.4,2013-01-09 06:30:00,
2013-01-09 01:45:00,62.4,62.4,30.16,North,0,0.0,3.0,100,0.00,,,-99.99,WeatherLink 5.4,2013-01-09 06:45:00,
2013-01-09 02:00:00,62.7,62.7,30.15,NNW,337,0.0,3.0,100,0.00,,,-99.99,WeatherLink 5.4,2013-01-09 07:00:00,
2013-01-09 02:15:00,62.8,62.8,30.15,NNE,22,0.0,4.0,100,0.00,,,-99.99,WeatherLink 5.4,2013-01-09 07:15:00,
2013-01-09 02:30:00,62.2,62.2,30.16,North,0,0.0,3.0,100,0.00,,,-99.99,WeatherLink 5.4,2013-01-09 07:30:00,
2013-01-09 02:45:00,61.7,61.7,30.15,NNE,22,0.0,1.0,100,0.00,,,-99.99,WeatherLink 5.4,2013-01-09 07:45:00,
2013-01-09 03:00:00,61.5,61.5,30.15,NNE,22,0.0,1.0,100,0.00,,,-99.99,WeatherLink 5.4,2013-01-09 08:00:00,
2013-01-09 03:15:00,61.5,61.5,30.15,NNE,22,0.0,2.0,100,0.00,,,-99.99,WeatherLink 5.4,2013-01-09 08:15:00,
2013-01-09 03:30:00,61.5,61.5,30.14,East,90,0.0,2.0,100,0.00,,,-99.99,WeatherLink 5.4,2013-01-09 08:30:00,
2013-01-09 03:45:00,61.4,61.4,30.14,East,90,0.0,3.0,100,0.00,,,-99.99,WeatherLink 5.4,2013-01-09 08:45:00,
2013-01-09 04:00:00,61.3,61.3,30.15,NNE,22,0.0,2.0,100,0.00,,,-99.99,WeatherLink 5.4,2013-01-09 09:00:00,
2013-01-09 04:15:00,61.1,61.1,30.15,North,0,0.0,4.0,100,0.00,,,-99.99,WeatherLink 5.4,2013-01-09 09:15:00,
2013-01-09 04:30:00,60.9,60.9,30.15,NNE,22,0.0,3.0,100,0.00,,,-99.99,WeatherLink 5.4,2013-01-09 09:30:00,
2013-01-09 04:45:00,60.9,60.9,30.15,NNE,22,0.0,1.0,100,0.00,,,-99.99,WeatherLink 5.4,2013-01-09 09:45:00,
2013-01-09 05:00:00,60.8,60.8,30.15,NNE,22,0.0,1.0,100,0.00,,,-99.99,WeatherLink 5.4,2013-01-09 10:00:00,
2013-01-09 05:15:00,60.7,60.7,30.15,NNE,22,0.0,1.0,100,0.00,,,-99.99,WeatherLink 5.4,2013-01-09 10:15:00,
2013-01-09 05:30:00,60.6,60.6,30.16,NNE,22,0.0,2.0,100,0.00,,,-99.99,WeatherLink 5.4,2013-01-09 10:30:00,
2013-01-09 05:45:00,60.5,60.5,30.15,NNE,22,0.0,1.0,100,0.00,,,-99.99,WeatherLink 5.4,2013-01-09 10:45:00,
2013-01-09 06:00:00,60.4,60.4,30.16,NNE,22,0.0,2.0,100,0.00,,,-99.99,WeatherLink 5.4,2013-01-09 11:00:00,
2013-01-09 06:15:00,60.2,60.2,30.16,North,0,0.0,3.0,100,0.00,,,-99.99,WeatherLink 5.4,2013-01-09 11:15:00,
2013-01-09 06:30:00,60.1,60.1,30.16,North,-999,0.0,0.0,100,0.00,,,-99.99,WeatherLink 5.4,2013-01-09 11:30:00,
2013-01-09 06:45:00,60.1,60.1,30.17,North,-999,0.0,0.0,100,0.00,,,-99.99,WeatherLink 5.4,2013-01-09 11:45:00,
2013-01-09 07:00:00,60.2,60.2,30.17,North,0,0.0,1.0,100,0.00,,,-99.99,WeatherLink 5.4,2013-01-09 12:00:00,
2013-01-09 07:15:00,60.2,60.2,30.18,NNE,22,0.0,1.0,100,0.00,,,-99.99,WeatherLink 5.4,2013-01-09 12:15:00,
2013-01-09 07:30:00,60.3,60.3,30.19,NNE,22,0.0,1.0,100,0.00,,,-99.99,WeatherLink 5.4,2013-01-09 12:30:00,
2013-01-09 07:45:00,60.4,60.4,30.20,NNE,22,0.0,2.0,100,0.00,,,-99.99,WeatherLink 5.4,2013-01-09 12:45:00,
2013-01-09 08:00:00,60.6,60.6,30.21,North,-999,0.0,0.0,100,0.00,,,-99.99,WeatherLink 5.4,2013-01-09 13:00:00,
2013-01-09 08:15:00,60.9,60.9,30.21,NNE,22,0.0,1.0,100,0.00,,,-99.99,WeatherLink 5.4,2013-01-09 13:15:00,
2013-01-09 08:30:00,61.1,61.1,30.22,NE,45,0.0,2.0,100,0.00,,,-99.99,WeatherLink 5.4,2013-01-09 13:30:00,
2013-01-09 08:45:00,61.5,61.5,30.22,NE,45,0.0,1.0,100,0.00,,,-99.99,WeatherLink 5.4,2013-01-09 13:45:00,
2013-01-09 09:00:00,61.8,61.8,30.23,NNE,22,0.0,2.0,100,0.00,,,-99.99,WeatherLink 5.4,2013-01-09 14:00:00,
2013-01-09 09:15:00,62.1,62.1,30.23,NE,45,0.0,3.0,100,0.00,,,-99.99,WeatherLink 5.4,2013-01-09 14:15:00,
2013-01-09 09:30:00,62.6,62.6,30.24,NE,45,0.0,1.0,100,0.00,,,-99.99,WeatherLink 5.4,2013-01-09 14:30:00,
2013-01-09 09:45:00,63.0,63.0,30.24,NE,45,0.0,1.0,100,0.00,,,-99.99,WeatherLink 5.4,2013-01-09 14:45:00,
2013-01-09 10:00:00,63.5,63.5,30.24,North,0,0.0,3.0,100,0.00,,,-99.99,WeatherLink 5.4,2013-01-09 15:00:00,
2013-01-09 10:15:00,63.8,63.8,30.24,North,0,0.0,3.0,100,0.00,,,-99.99,WeatherLink 5.4,2013-01-09 15:15:00,
2013-01-09 10:30:00,64.5,64.5,30.24,North,0,0.0,3.0,100,0.00,,,-99.99,WeatherLink 5.4,2013-01-09 15:30:00,
2013-01-09 10:45:00,64.9,64.9,30.24,North,0,0.0,3.0,100,0.00,,,-99.99,WeatherLink 5.4,2013-01-09 15:45:00,
2013-01-09 11:00:00,66.0,66.0,30.24,NW,315,0.0,2.0,100,0.00,,,-99.99,WeatherLink 5.4,2013-01-09 16:00:00,
2013-01-09 11:15:00,66.7,66.7,30.23,NW,315,0.0,1.0,100,0.00,,,-99.99,WeatherLink 5.4,2013-01-09 16:15:00,
2013-01-09 11:30:00,67.9,67.9,30.23,ENE,67,0.0,3.0,100,0.00,,,-99.99,WeatherLink 5.4,2013-01-09 16:30:00,
2013-01-09 11:45:00,69.0,69.0,30.22,NNE,22,0.0,2.0,100,0.00,,,-99.99,WeatherLink 5.4,2013-01-09 16:45:00,
2013-01-09 12:00:00,69.6,69.6,30.22,East,90,0.0,4.0,100,0.00,,,-99.99,WeatherLink 5.4,2013-01-09 17:00:00,
2013-01-09 12:15:00,70.1,69.2,30.22,North,0,0.0,2.0,97,0.00,,,-99.99,WeatherLink 5.4,2013-01-09 17:15:00,
2013-01-09 12:30:00,70.1,68.9,30.21,ENE,67,0.0,4.0,96,0.00,,,-99.99,WeatherLink 5.4,2013-01-09 17:30:00,
2013-01-09 12:45:00,70.5,68.4,30.21,East,90,0.0,4.0,93,0.00,,,-99.99,WeatherLink 5.4,2013-01-09 17:45:00,
2013-01-09 13:00:00,71.2,68.4,30.20,NNW,337,1.0,5.0,91,0.00,,,-99.99,WeatherLink 5.4,2013-01-09 18:00:00,
2013-01-09 13:15:00,70.9,68.5,30.20,North,0,1.0,5.0,92,0.00,,,-99.99,WeatherLink 5.4,2013-01-09 18:15:00,
2013-01-09 13:30:00,71.2,68.4,30.19,East,90,0.0,4.0,91,0.00,,,-99.99,WeatherLink 5.4,2013-01-09 18:30:00,
2013-01-09 13:45:00,71.5,68.7,30.19,East,90,1.0,4.0,91,0.00,,,-99.99,WeatherLink 5.4,2013-01-09 18:45:00,
2013-01-09 14:00:00,71.8,68.4,30.19,ENE,67,1.0,4.0,89,0.00,,,-99.99,WeatherLink 5.4,2013-01-09 19:00:00,
2013-01-09 14:15:00,71.2,68.4,30.19,East,90,1.0,5.0,91,0.00,,,-99.99,WeatherLink 5.4,2013-01-09 19:15:00,
2013-01-09 14:30:00,71.2,68.1,30.19,East,90,0.0,4.0,90,0.00,,,-99.99,WeatherLink 5.4,2013-01-09 19:30:00,
2013-01-09 14:45:00,71.5,68.4,30.19,East,90,1.0,5.0,90,0.00,,,-99.99,WeatherLink 5.4,2013-01-09 19:45:00,
2013-01-09 15:00:00,70.9,68.1,30.19,East,90,1.0,6.0,91,0.00,,,-99.99,WeatherLink 5.4,2013-01-09 20:00:00,
2013-01-09 15:15:00,70.5,67.4,30.20,East,90,1.0,5.0,90,0.00,,,-99.99,WeatherLink 5.4,2013-01-09 20:15:00,
2013-01-09 15:30:00,70.4,68.0,30.20,East,90,1.0,6.0,92,0.00,,,-99.99,WeatherLink 5.4,2013-01-09 20:30:00,
2013-01-09 15:45:00,69.8,67.7,30.20,East,90,1.0,6.0,93,0.00,,,-99.99,WeatherLink 5.4,2013-01-09 20:45:00,
2013-01-09 16:00:00,69.0,67.2,30.20,East,90,0.0,4.0,94,0.00,,,-99.99,WeatherLink 5.4,2013-01-09 21:00:00,
2013-01-09 16:15:00,68.6,66.5,30.21,East,90,0.0,3.0,93,0.00,,,-99.99,WeatherLink 5.4,2013-01-09 21:15:00,
2013-01-09 16:30:00,68.2,65.8,30.21,ENE,67,0.0,3.0,92,0.00,,,-99.99,WeatherLink 5.4,2013-01-09 21:30:00,
2013-01-09 16:45:00,67.5,65.1,30.22,East,90,0.0,3.0,92,0.00,,,-99.99,WeatherLink 5.4,2013-01-09 21:45:00,
2013-01-09 16:54:00,67.5,65.1,30.22,East,90,0.0,3.0,92,0.00,,,-99.99,WeatherLink 5.4,2013-01-09 21:54:00,
2013-01-09 17:00:00,66.4,64.3,30.22,East,90,0.0,5.0,93,0.00,,,-99.99,WeatherLink 5.4,2013-01-09 22:00:00,
2013-01-09 17:03:00,66.4,64.3,30.22,East,90,0.0,5.0,93,0.00,,,-99.99,WeatherLink 5.4,2013-01-09 22:03:00,
2013-01-09 17:15:00,65.2,63.4,30.22,North,0,0.0,2.0,94,0.00,,,-99.99,WeatherLink 5.4,2013-01-09 22:15:00,
2013-01-09 17:19:00,65.2,63.4,30.22,North,0,0.0,2.0,94,0.00,,,-99.99,WeatherLink 5.4,2013-01-09 22:19:00,
2013-01-09 17:30:00,63.8,62.6,30.22,East,90,0.0,3.0,96,0.00,,,-99.99,WeatherLink 5.4,2013-01-09 22:30:00,
2013-01-09 17:34:00,63.8,62.6,30.22,East,90,0.0,3.0,96,0.00,,,-99.99,WeatherLink 5.4,2013-01-09 22:34:00,
2013-01-09 17:45:00,63.1,62.5,30.22,North,0,0.0,2.0,98,0.00,,,-99.99,WeatherLink 5.4,2013-01-09 22:45:00,
2013-01-09 17:49:00,63.1,62.5,30.22,North,0,0.0,2.0,98,0.00,,,-99.99,WeatherLink 5.4,2013-01-09 22:49:00,
2013-01-09 18:00:00,62.7,62.4,30.22,ESE,112,0.0,3.0,99,0.00,,,-99.99,WeatherLink 5.4,2013-01-09 23:00:00,
2013-01-09 18:04:00,62.7,62.4,30.22,ESE,112,0.0,3.0,99,0.00,,,-99.99,WeatherLink 5.4,2013-01-09 23:04:00,
2013-01-09 18:15:00,62.3,62.0,30.22,North,0,0.0,1.0,99,0.00,,,-99.99,WeatherLink 5.4,2013-01-09 23:15:00,
2013-01-09 18:19:00,62.3,62.0,30.22,North,0,0.0,1.0,99,0.00,,,-99.99,WeatherLink 5.4,2013-01-09 23:19:00,
2013-01-09 18:30:00,62.3,62.3,30.23,NNE,22,0.0,2.0,100,0.00,,,-99.99,WeatherLink 5.4,2013-01-09 23:30:00,
2013-01-09 18:34:00,62.3,62.3,30.23,NNE,22,0.0,2.0,100,0.00,,,-99.99,WeatherLink 5.4,2013-01-09 23:34:00,
2013-01-09 18:45:00,62.5,62.5,30.23,ENE,67,0.0,3.0,100,0.00,,,-99.99,WeatherLink 5.4,2013-01-09 23:45:00,
2013-01-09 18:49:00,62.5,62.5,30.23,ENE,67,0.0,3.0,100,0.00,,,-99.99,WeatherLink 5.4,2013-01-09 23:49:00,
2013-01-09 19:00:00,62.7,62.7,30.24,NE,45,0.0,1.0,100,0.00,,,-99.99,WeatherLink 5.4,2013-01-10 00:00:00,
2013-01-09 19:03:00,62.7,62.7,30.24,NE,45,0.0,1.0,100,0.00,,,-99.99,WeatherLink 5.4,2013-01-10 00:03:00,
2013-01-09 19:15:00,62.9,62.9,30.24,NNW,337,0.0,2.0,100,0.00,,,-99.99,WeatherLink 5.4,2013-01-10 00:15:00,
2013-01-09 19:19:00,62.9,62.9,30.24,NNW,337,0.0,2.0,100,0.00,,,-99.99,WeatherLink 5.4,2013-01-10 00:19:00,
2013-01-09 19:30:00,62.9,62.9,30.24,NNW,337,0.0,1.0,100,0.00,,,-99.99,WeatherLink 5.4,2013-01-10 00:30:00,
2013-01-09 19:34:00,62.9,62.9,30.24,NNW,337,0.0,1.0,100,0.00,,,-99.99,WeatherLink 5.4,2013-01-10 00:34:00,
2013-01-09 19:45:00,63.1,63.1,30.25,East,90,0.0,2.0,100,0.00,,,-99.99,WeatherLink 5.4,2013-01-10 00:45:00,
2013-01-09 19:49:00,63.1,63.1,30.25,East,90,0.0,2.0,100,0.00,,,-99.99,WeatherLink 5.4,2013-01-10 00:49:00,
2013-01-09 20:00:00,63.4,63.4,30.25,East,90,0.0,1.0,100,0.00,,,-99.99,WeatherLink 5.4,2013-01-10 01:00:00,
2013-01-09 20:04:00,63.4,63.4,30.25,East,90,0.0,1.0,100,0.00,,,-99.99,WeatherLink 5.4,2013-01-10 01:04:00,
2013-01-09 20:15:00,63.7,63.7,30.25,East,90,0.0,1.0,100,0.00,,,-99.99,WeatherLink 5.4,2013-01-10 01:15:00,
2013-01-09 20:19:00,63.7,63.7,30.25,East,90,0.0,1.0,100,0.00,,,-99.99,WeatherLink 5.4,2013-01-10 01:19:00,
2013-01-09 20:30:00,64.0,64.0,30.25,East,90,0.0,1.0,100,0.00,,,-99.99,WeatherLink 5.4,2013-01-10 01:30:00,
2013-01-09 20:34:00,64.0,64.0,30.25,East,90,0.0,1.0,100,0.00,,,-99.99,WeatherLink 5.4,2013-01-10 01:34:00,
2013-01-09 20:45:00,64.5,64.5,30.25,East,90,0.0,2.0,100,0.00,,,-99.99,WeatherLink 5.4,2013-01-10 01:45:00,
2013-01-09 20:49:00,64.5,64.5,30.25,East,90,0.0,2.0,100,0.00,,,-99.99,WeatherLink 5.4,2013-01-10 01:49:00,
2013-01-09 21:00:00,65.3,65.3,30.25,East,90,0.0,1.0,100,0.00,,,-99.99,WeatherLink 5.4,2013-01-10 02:00:00,
2013-01-09 21:04:00,65.3,65.3,30.25,East,90,0.0,1.0,100,0.00,,,-99.99,WeatherLink 5.4,2013-01-10 02:04:00,
2013-01-09 21:15:00,65.5,65.5,30.25,East,90,0.0,2.0,100,0.00,,,-99.99,WeatherLink 5.4,2013-01-10 02:15:00,
2013-01-09 21:19:00,65.5,65.5,30.25,East,90,0.0,2.0,100,0.00,,,-99.99,WeatherLink 5.4,2013-01-10 02:19:00,
2013-01-09 21:30:00,65.3,65.3,30.25,East,90,0.0,1.0,100,0.00,,,-99.99,WeatherLink 5.4,2013-01-10 02:30:00,
2013-01-09 21:34:00,65.3,65.3,30.25,East,90,0.0,1.0,100,0.00,,,-99.99,WeatherLink 5.4,2013-01-10 02:34:00,
2013-01-09 21:45:00,65.2,65.2,30.25,East,90,0.0,1.0,100,0.00,,,-99.99,WeatherLink 5.4,2013-01-10 02:45:00,
2013-01-09 21:49:00,65.2,65.2,30.25,East,90,0.0,1.0,100,0.00,,,-99.99,WeatherLink 5.4,2013-01-10 02:49:00,
2013-01-09 22:00:00,65.0,65.0,30.25,North,-999,0.0,0.0,100,0.00,,,-99.99,WeatherLink 5.4,2013-01-10 03:00:00,
2013-01-09 22:04:00,65.0,65.0,30.25,North,-999,0.0,0.0,100,0.00,,,-99.99,WeatherLink 5.4,2013-01-10 03:04:00,
2013-01-09 22:15:00,64.8,64.8,30.25,North,-999,0.0,0.0,100,0.00,,,-99.99,WeatherLink 5.4,2013-01-10 03:15:00,
2013-01-09 22:18:00,64.8,64.8,30.25,North,-999,0.0,0.0,100,0.00,,,-99.99,WeatherLink 5.4,2013-01-10 03:18:00,
2013-01-09 22:23:00,64.8,64.8,30.25,North,-999,0.0,0.0,100,0.00,,,-99.99,WeatherLink 5.4,2013-01-10 03:23:00,
2013-01-09 22:30:00,64.8,64.8,30.25,East,90,0.0,1.0,100,0.00,,,-99.99,WeatherLink 5.4,2013-01-10 03:30:00,
2013-01-09 22:34:00,64.8,64.8,30.25,East,90,0.0,1.0,100,0.00,,,-99.99,WeatherLink 5.4,2013-01-10 03:34:00,
2013-01-09 22:45:00,64.8,64.8,30.25,East,90,0.0,1.0,100,0.00,,,-99.99,WeatherLink 5.4,2013-01-10 03:45:00,
2013-01-09 22:49:00,64.8,64.8,30.25,East,90,0.0,1.0,100,0.00,,,-99.99,WeatherLink 5.4,2013-01-10 03:49:00,
2013-01-09 23:00:00,65.2,65.2,30.25,East,90,0.0,2.0,100,0.00,,,-99.99,WeatherLink 5.4,2013-01-10 04:00:00,
2013-01-09 23:15:00,65.5,65.5,30.26,East,90,0.0,1.0,100,0.00,,,-99.99,WeatherLink 5.4,2013-01-10 04:15:00,
2013-01-09 23:30:00,65.6,65.6,30.25,North,-999,0.0,0.0,100,0.00,,,-99.99,WeatherLink 5.4,2013-01-10 04:30:00,
2013-01-09 23:45:00,65.3,65.3,30.25,North,-999,0.0,0.0,100,0.00,,,-99.99,WeatherLink 5.4,2013-01-10 04:45:00,